When you browse on this site, cookies collect data to enhance your experience and personalize the content and advertising you see.
Visit our Privacy Policy to learn more. By continuing to use the site, you agree to this use of cookies and data.
  • En España
  • Lista de países
  • Para 7 días
  • Temperatura del agua
  • El tiempo en el mapa
  • Informadores
  • user-avatar
    Iniciar sesión

    Tiempo cada hora Liverpool

    Hoy, 22 Septiembre, Domingo

    Tiempo Temperatura Precipitaciones Viento Presión Humedad
    00:00 +16°C° 0 mm 5 mps 753 mmHg 67%
    01:00 +16°C° 0.4 mm 5 mps 752 mmHg 72%
    02:00 +17°C° 0.4 mm 4 mps 751 mmHg 76%
    03:00 +15°C° 0.4 mm 4 mps 750 mmHg 81%
    04:00 +15°C° 0.3 mm 4 mps 750 mmHg 82%
    05:00 +15°C° 0.3 mm 4 mps 750 mmHg 84%
    06:00 +15°C° 0.3 mm 4 mps 750 mmHg 85%
    07:00 +17°C° 0.4 mm 4 mps 750 mmHg 85%
    08:00 +17°C° 0.4 mm 5 mps 750 mmHg 84%
    09:00 +19°C° 0.4 mm 5 mps 749 mmHg 84%
    10:00 +20°C° 0.1 mm 4 mps 749 mmHg 81%
    11:00 +20°C° 0.1 mm 4 mps 749 mmHg 79%
    12:00 +20°C° 0.1 mm 3 mps 750 mmHg 76%
    13:00 +20°C° 0.3 mm 3 mps 750 mmHg 76%
    14:00 +20°C° 0.3 mm 3 mps 750 mmHg 76%
    15:00 +20°C° 0.3 mm 2 mps 750 mmHg 76%
    16:00 +19°C° 0.7 mm 2 mps 750 mmHg 80%
    17:00 +18°C° 0.7 mm 2 mps 750 mmHg 85%
    18:00 +17°C° 0.7 mm 2 mps 750 mmHg 89%
    19:00 +16°C° 0.7 mm 2 mps 750 mmHg 89%
    20:00 +16°C° 0.7 mm 2 mps 750 mmHg 90%
    21:00 +15°C° 0.7 mm 1 mps 751 mmHg 91%
    22:00 +15°C° 0.3 mm 1 mps 751 mmHg 91%
    23:00 +15°C° 0.3 mm 1 mps 751 mmHg 92%

    Mañana, 23 Septiembre, Lunes

    Tiempo Temperatura Precipitaciones Viento Presión Humedad
    00:00 +14°C° 0.3 mm 1 mps 752 mmHg 92%
    01:00 +14°C° 0.4 mm 1 mps 752 mmHg 92%
    02:00 +14°C° 0.4 mm 2 mps 752 mmHg 92%
    03:00 +14°C° 0.4 mm 2 mps 752 mmHg 92%
    04:00 +12°C° 0 mm 3 mps 753 mmHg 92%
    05:00 +12°C° 0 mm 3 mps 753 mmHg 92%
    06:00 +12°C° 0 mm 3 mps 753 mmHg 93%
    07:00 +13°C° 0 mm 3 mps 753 mmHg 89%
    08:00 +14°C° 0 mm 3 mps 754 mmHg 85%
    09:00 +16°C° 0 mm 3 mps 754 mmHg 81%
    10:00 +17°C° 0 mm 3 mps 754 mmHg 75%
    11:00 +18°C° 0 mm 3 mps 754 mmHg 68%
    12:00 +19°C° 0 mm 3 mps 754 mmHg 62%
    13:00 +18°C° 0 mm 4 mps 754 mmHg 64%
    14:00 +17°C° 0 mm 5 mps 753 mmHg 67%
    15:00 +17°C° 0 mm 5 mps 753 mmHg 70%
    16:00 +16°C° 0.3 mm 6 mps 753 mmHg 74%
    17:00 +16°C° 0.3 mm 6 mps 752 mmHg 79%
    18:00 +15°C° 0.3 mm 7 mps 752 mmHg 83%
    19:00 +15°C° 0.2 mm 7 mps 751 mmHg 85%
    20:00 +15°C° 0.2 mm 7 mps 751 mmHg 86%
    21:00 +15°C° 0.2 mm 7 mps 751 mmHg 88%
    22:00 +15°C° 0.5 mm 6 mps 751 mmHg 89%
    23:00 +15°C° 0.5 mm 6 mps 750 mmHg 91%

    Pasado mañana, 24 Septiembre, Martes

    Tiempo Temperatura Precipitaciones Viento Presión Humedad
    00:00 +15°C° 0.5 mm 5 mps 750 mmHg 92%
    01:00 +15°C° 0.3 mm 5 mps 749 mmHg 93%
    02:00 +15°C° 0.3 mm 5 mps 749 mmHg 94%
    03:00 +15°C° 0.3 mm 5 mps 748 mmHg 95%
    04:00 +15°C° 0.7 mm 5 mps 748 mmHg 94%
    05:00 +15°C° 0.7 mm 4 mps 747 mmHg 94%
    06:00 +15°C° 0.7 mm 4 mps 747 mmHg 93%
    07:00 +17°C° 0.8 mm 4 mps 747 mmHg 91%
    08:00 +17°C° 0.8 mm 4 mps 746 mmHg 89%
    09:00 +18°C° 0.8 mm 4 mps 746 mmHg 87%
    10:00 +18°C° 2.3 mm 4 mps 746 mmHg 88%
    11:00 +17°C° 2.3 mm 4 mps 746 mmHg 89%
    12:00 +16°C° 2.3 mm 5 mps 746 mmHg 89%
    13:00 +17°C° 2.2 mm 4 mps 745 mmHg 88%
    14:00 +17°C° 2.2 mm 3 mps 745 mmHg 87%
    15:00 +16°C° 2.2 mm 2 mps 745 mmHg 85%
    16:00 +16°C° 0.1 mm 2 mps 745 mmHg 85%
    17:00 +16°C° 0.1 mm 3 mps 745 mmHg 84%
    18:00 +16°C° 0.1 mm 3 mps 745 mmHg 84%
    19:00 +16°C° 0.1 mm 3 mps 745 mmHg 86%
    20:00 +14°C° 0.1 mm 3 mps 745 mmHg 87%
    21:00 +14°C° 0.1 mm 3 mps 745 mmHg 89%
    22:00 +14°C° 0.3 mm 3 mps 745 mmHg 90%
    23:00 +14°C° 0.3 mm 3 mps 744 mmHg 91%

    25 Septiembre, Miércoles

    Tiempo Temperatura Precipitaciones Viento Presión Humedad
    00:00 +14°C° 0.3 mm 3 mps 744 mmHg 92%
    01:00 +14°C° 0.2 mm 3 mps 744 mmHg 93%
    02:00 +15°C° 0.2 mm 2 mps 745 mmHg 93%
    03:00 +15°C° 0.2 mm 2 mps 745 mmHg 94%
    04:00 +15°C° 0.1 mm 2 mps 745 mmHg 94%
    05:00 +14°C° 0.1 mm 3 mps 745 mmHg 94%
    06:00 +14°C° 0.1 mm 3 mps 745 mmHg 94%
    07:00 +14°C° 0.1 mm 4 mps 746 mmHg 91%
    08:00 +15°C° 0.1 mm 4 mps 747 mmHg 89%
    09:00 +17°C° 0.1 mm 4 mps 747 mmHg 86%
    10:00 +17°C° 0 mm 4 mps 747 mmHg 82%
    11:00 +18°C° 0 mm 4 mps 748 mmHg 78%
    12:00 +18°C° 0 mm 3 mps 748 mmHg 74%
    13:00 +18°C° 0.1 mm 3 mps 748 mmHg 75%
    14:00 +18°C° 0.1 mm 3 mps 748 mmHg 75%
    15:00 +18°C° 0.1 mm 3 mps 748 mmHg 75%
    16:00 +17°C° 0 mm 3 mps 748 mmHg 78%
    17:00 +17°C° 0 mm 3 mps 748 mmHg 81%
    18:00 +16°C° 0 mm 3 mps 747 mmHg 84%
    19:00 +15°C° 0.3 mm 4 mps 747 mmHg 87%
    20:00 +15°C° 0.3 mm 5 mps 747 mmHg 89%
    21:00 +15°C° 0.3 mm 5 mps 746 mmHg 92%
    22:00 +16°C° 0.6 mm 5 mps 746 mmHg 92%
    23:00 +16°C° 0.6 mm 6 mps 746 mmHg 92%

    26 Septiembre, Jueves

    Tiempo Temperatura Precipitaciones Viento Presión Humedad
    00:00 +16°C° 0.6 mm 6 mps 745 mmHg 92%
    01:00 +16°C° 0.2 mm 6 mps 745 mmHg 91%
    02:00 +16°C° 0.2 mm 5 mps 745 mmHg 90%
    03:00 +16°C° 0.2 mm 5 mps 745 mmHg 90%
    04:00 +15°C° 0.1 mm 5 mps 746 mmHg 88%
    05:00 +13°C° 0.1 mm 5 mps 746 mmHg 86%
    06:00 +11°C° 0.1 mm 6 mps 746 mmHg 84%
    07:00 +13°C° 0 mm 6 mps 746 mmHg 81%
    08:00 +14°C° 0 mm 5 mps 747 mmHg 78%
    09:00 +15°C° 0 mm 5 mps 747 mmHg 76%
    10:00 +15°C° 0.1 mm 5 mps 747 mmHg 76%
    11:00 +15°C° 0.1 mm 5 mps 747 mmHg 76%
    12:00 +15°C° 0.1 mm 5 mps 747 mmHg 76%
    13:00 +15°C° 0.4 mm 5 mps 747 mmHg 77%
    14:00 +15°C° 0.4 mm 5 mps 747 mmHg 77%
    15:00 +15°C° 0.4 mm 5 mps 746 mmHg 78%
    16:00 +14°C° 0.2 mm 5 mps 747 mmHg 79%
    17:00 +14°C° 0.2 mm 5 mps 747 mmHg 79%
    18:00 +13°C° 0.2 mm 5 mps 747 mmHg 79%
    19:00 +13°C° 0 mm 5 mps 747 mmHg 81%
    20:00 +12°C° 0 mm 5 mps 747 mmHg 83%
    21:00 +12°C° 0 mm 5 mps 747 mmHg 85%
    22:00 +12°C° 0.2 mm 5 mps 747 mmHg 85%
    23:00 +12°C° 0.2 mm 5 mps 747 mmHg 85%

    27 Septiembre, Viernes

    Tiempo Temperatura Precipitaciones Viento Presión Humedad
    00:00 +12°C° 0.2 mm 5 mps 747 mmHg 86%
    01:00 +12°C° 0.3 mm 5 mps 747 mmHg 87%
    02:00 +12°C° 0.3 mm 5 mps 747 mmHg 87%
    03:00 +12°C° 0.3 mm 4 mps 747 mmHg 88%
    04:00 +12°C° 0.1 mm 4 mps 747 mmHg 88%
    05:00 +12°C° 0.1 mm 4 mps 747 mmHg 87%
    06:00 +12°C° 0.1 mm 4 mps 747 mmHg 86%
    07:00 +12°C° 0.1 mm 5 mps 747 mmHg 84%
    08:00 +13°C° 0.1 mm 5 mps 747 mmHg 81%
    09:00 +14°C° 0.1 mm 6 mps 747 mmHg 79%
    10:00 +14°C° 0.2 mm 6 mps 747 mmHg 75%
    11:00 +15°C° 0.2 mm 6 mps 747 mmHg 72%
    12:00 +16°C° 0.2 mm 6 mps 747 mmHg 68%
    13:00 +16°C° 0.1 mm 6 mps 747 mmHg 69%
    14:00 +16°C° 0.1 mm 6 mps 747 mmHg 70%
    15:00 +16°C° 0.1 mm 6 mps 746 mmHg 71%
    16:00 +15°C° 0.3 mm 6 mps 746 mmHg 75%
    17:00 +15°C° 0.3 mm 6 mps 746 mmHg 78%
    18:00 +14°C° 0.3 mm 7 mps 746 mmHg 82%
    19:00 +14°C° 0.8 mm 7 mps 746 mmHg 84%
    20:00 +14°C° 0.8 mm 7 mps 746 mmHg 86%
    21:00 +14°C° 0.8 mm 7 mps 746 mmHg 88%
    22:00 +12°C° 0.7 mm 7 mps 746 mmHg 88%
    23:00 +12°C° 0.7 mm 7 mps 746 mmHg 88%
    Mostrar más